User: anonymous   Login
Location: Montr�al
(45.5000°N, 73.5830°W)
Time: 03:03:49
(UTC-05:00)
Language:

Cosmos 2369 - Orbit

View from above orbital plane
View from above orbital plane
View from above satellite
View from above satellite

Ground track
Ground track

The orbit data is extracted from the following two-line orbital elements,

1 26069U 00006A   14352.79387095 -.00000175  00000-0 -68114-4 0  4233
2 26069 070.9975 108.2115 0010423 189.0992 325.2037 14.13271024767353
Epoch (UTC): 18 December 2014 19:03:10
Eccentricity: 0.0010423
inclination: 70.9975°
perigee height: 840 km
apogee height: 856 km
right ascension of ascending node: 108.2115°
argument of perigee: 189.0992°
revolutions per day: 14.13271024
mean anomaly at epoch: 325.2037°
orbit number at epoch: 76735

The dashed part of the orbit path shows where the satellite is in the earth's shadow,  

DLR